GW1408 Weather Reports


Display with metric or nautical units.
time (UTC)temp
F
wind
direction
speed
MPH
gust
MPH
rain 1hr
in
rain 24hr
in
rain mn
in
humidity
%
barometer
mb
20240620211808 90 235 2.0 5.0 0.00 0.01 0.01 52 1015.6
20240620210805 90 223 1.0 5.0 0.00 0.01 0.01 53 1015.7
20240620210305 90 228 1.0 7.0 0.00 0.01 0.01 52 1015.7
20240620205307 90 144 1.0 7.0 0.00 0.01 0.01 53 1015.8
20240620204306 90 157 1.0 8.0 0.00 0.01 0.01 50 1015.9
20240620203805 90 149 3.0 8.0 0.00 0.01 0.01 49 1015.9
20240620202307 90 239 2.0 9.0 0.00 0.01 0.01 57 1016.0
20240620201305 90 238 2.0 9.0 0.00 0.01 0.01 56 1016.1
20240620200306 90 214 2.0 6.0 0.00 0.01 0.01 52 1016.2
20240620195805 90 218 3.0 6.0 0.00 0.01 0.01 51 1016.2
20240620195306 90 232 2.0 8.0 0.00 0.01 0.01 55 1016.2
20240620194805 90 232 3.0 8.0 0.00 0.01 0.01 52 1016.3
20240620194305 89 234 2.0 7.0 0.00 0.01 0.01 57 1016.3
20240620193805 90 234 3.0 7.0 0.00 0.01 0.01 54 1016.3
20240620193305 90 207 1.0 5.0 0.00 0.01 0.01 55 1016.3
20240620192307 89 209 2.0 5.0 0.00 0.01 0.01 55 1016.4
20240620191806 89 209 2.0 3.0 0.00 0.01 0.01 53 1016.5
20240620191305 89 209 2.0 3.0 0.00 0.01 0.01 58 1016.6
20240620190306 90 211 1.0 5.0 0.00 0.01 0.01 54 1016.7
20240620185307 89 222 3.0 7.0 0.00 0.01 0.01 54 1016.7
20240620184806 88 199 1.0 3.0 0.00 0.01 0.01 53 1016.7
20240620184306 89 199 2.0 6.0 0.00 0.01 0.01 53 1016.9
20240620183806 89 200 2.0 6.0 0.00 0.01 0.01 58 1016.9
20240620183305 89 188 2.0 6.0 0.00 0.01 0.01 59 1016.9
20240620182805 89 190 2.0 6.0 0.00 0.01 0.01 57 1016.9
20240620181805 89 203 2.0 3.0 0.00 0.01 0.01 61 1017.0
20240620181305 89 205 0.0 7.0 0.00 0.01 0.01 58 1017.0
20240620180805 88 205 1.0 7.0 0.00 0.01 0.01 62 1017.1
20240620180305 88 220 3.0 7.0 0.00 0.01 0.01 61 1017.2
20240620175805 87 265 2.0 3.0 0.00 0.01 0.01 61 1017.2
20240620175306 87 265 0.0 3.0 0.00 0.01 0.01 62 1017.2
20240620174805 86 265 1.0 6.0 0.00 0.01 0.01 61 1017.2
20240620174305 87 267 1.0 7.0 0.00 0.01 0.01 58 1017.2
20240620173806 86 268 2.0 7.0 0.00 0.01 0.01 61 1017.2
20240620173305 85 266 2.0 7.0 0.00 0.01 0.01 63 1017.2
20240620172806 86 262 4.0 7.0 0.00 0.01 0.01 62 1017.3
20240620172306 87 250 2.0 5.0 0.00 0.01 0.01 61 1017.3
20240620171805 87 239 2.0 7.0 0.00 0.01 0.01 64 1017.3
20240620171305 86 248 2.0 7.0 0.00 0.01 0.01 64 1017.3
20240620170805 86 249 3.0 7.0 0.00 0.01 0.01 61 1017.3
20240620165806 86 217 2.0 8.0 0.00 0.01 0.01 63 1017.3
20240620165306 86 258 3.0 6.0 0.00 0.01 0.01 65 1017.4
20240620164806 86 261 1.0 7.0 0.00 0.01 0.01 66 1017.4
20240620164305 84 265 2.0 9.0 0.00 0.01 0.01 65 1017.4
20240620162805 84 253 2.0 8.0 0.00 0.01 0.01 65 1017.5
20240620162306 85 254 3.0 8.0 0.00 0.01 0.01 65 1017.5
20240620161806 85 260 1.0 7.0 0.00 0.01 0.01 68 1017.4
20240620161306 84 263 2.0 10.0 0.00 0.01 0.01 66 1017.5
20240620160306 84 266 4.0 8.0 0.00 0.01 0.01 67 1017.5
20240620155306 84 267 4.0 8.0 0.00 0.01 0.01 68 1017.5
20240620154805 84 257 2.0 10.0 0.00 0.01 0.01 68 1017.4
20240620154306 84 265 4.0 10.0 0.00 0.01 0.01 68 1017.5
20240620153805 83 236 2.0 10.0 0.00 0.01 0.01 68 1017.5
20240620153305 84 234 1.0 8.0 0.00 0.01 0.01 68 1017.4
20240620152805 83 252 2.0 9.0 0.00 0.01 0.01 70 1017.4
20240620152306 83 264 5.0 9.0 0.00 0.01 0.01 69 1017.3
20240620151805 83 279 5.0 9.0 0.00 0.01 0.01 69 1017.3
20240620151305 83 275 3.0 10.0 0.00 0.01 0.01 71 1017.3
20240620150805 83 267 7.0 10.0 0.00 0.01 0.01 71 1017.3
20240620145805 82 281 5.0 12.0 0.00 0.01 0.01 72 1017.3
20240620145306 82 277 4.0 9.0 0.00 0.01 0.01 73 1017.4
20240620144805 82 258 3.0 9.0 0.00 0.01 0.01 75 1017.4
20240620144305 82 244 2.0 9.0 0.00 0.01 0.01 77 1017.4
20240620143305 81 255 1.0 9.0 0.00 0.01 0.01 75 1017.4
20240620142805 81 259 2.0 7.0 0.00 0.01 0.01 78 1017.4
20240620142307 81 261 1.0 9.0 0.00 0.01 0.01 78 1017.4
20240620141806 80 265 2.0 9.0 0.00 0.01 0.01 80 1017.4
20240620141305 80 273 2.0 9.0 0.00 0.01 0.01 78 1017.4
20240620140805 80 277 5.0 9.0 0.00 0.01 0.01 77 1017.4
20240620140305 80 249 1.0 8.0 0.00 0.01 0.01 79 1017.4
20240620135307 79 240 2.0 5.0 0.00 0.01 0.01 80 1017.2
20240620134805 78 241 1.0 5.0 0.00 0.01 0.01 81 1017.1
20240620134305 77 242 0.0 3.0 0.00 0.01 0.01 81 1017.0
20240620133805 77 242 1.0 7.0 0.00 0.01 0.01 82 1017.1
20240620133305 77 242 1.0 7.0 0.00 0.01 0.01 83 1017.1
20240620132805 76 0 1.0 3.0 0.00 0.01 0.01 84 1017.1
20240620132307 76 0 1.0 3.0 0.00 0.01 0.01 84 1017.1
20240620131805 76 0 1.0 3.0 0.00 0.01 0.01 85 1017.1
20240620131305 75 3 1.0 3.0 0.00 0.01 0.01 85 1017.1
20240620130806 75 9 1.0 3.0 0.00 0.01 0.01 85 1017.2
20240620130305 75 9 1.0 3.0 0.00 0.01 0.01 86 1017.1
20240620125805 74 9 1.0 3.0 0.00 0.01 0.01 87 1017.1
20240620125306 74 9 0.0 2.0 0.00 0.01 0.01 87 1017.1
20240620124805 74 9 0.0 3.0 0.00 0.01 0.01 88 1017.1
20240620124305 74 9 1.0 3.0 0.00 0.01 0.01 88 1017.0
20240620123806 73 9 1.0 2.0 0.00 0.01 0.01 89 1017.0
20240620122805 73 9 1.0 2.0 0.00 0.01 0.01 90 1017.0
20240620122307 72 9 0.0 2.0 0.00 0.01 0.01 91 1017.0
20240620121805 72 9 0.0 2.0 0.00 0.01 0.01 91 1017.0
20240620121305 72 9 0.0 2.0 0.00 0.01 0.01 91 1016.9
20240620120804 72 9 1.0 2.0 0.00 0.01 0.01 91 1016.9
20240620120305 72 9 0.0 2.0 0.00 0.01 0.01 93 1016.9
20240620115805 72 9 0.0 2.0 0.00 0.01 0.01 93 1016.9
20240620115307 72 9 0.0 2.0 0.00 0.01 0.01 94 1016.9
20240620114805 71 9 0.0 2.0 0.00 0.01 0.01 94 1017.0
20240620114305 71 9 0.0 2.0 0.00 0.01 0.01 95 1017.0
20240620113804 71 9 0.0 2.0 0.00 0.01 0.01 95 1016.9
20240620113305 71 9 0.0 2.0 0.00 0.01 0.01 95 1016.9
20240620112805 71 9 0.0 2.0 0.00 0.01 0.01 95 1016.8
20240620112306 71 9 0.0 2.0 0.00 0.01 0.01 95 1016.7
20240620111805 71 9 0.0 2.0 0.00 0.01 0.01 95 1016.7
20240620111305 71 9 0.0 2.0 0.00 0.01 0.01 95 1016.7
20240620110805 70 9 0.0 2.0 0.00 0.01 0.01 95 1016.7
20240620110304 70 9 0.0 2.0 0.00 0.01 0.01 95 1016.7
20240620105804 70 9 0.0 2.0 0.00 0.01 0.01 95 1016.6
20240620105306 70 9 0.0 2.0 0.00 0.01 0.01 96 1016.5
20240620104805 70 9 0.0 2.0 0.00 0.01 0.01 96 1016.5
20240620104304 70 9 0.0 0.0 0.00 0.01 0.01 95 1016.5
20240620103304 70 9 0.0 2.0 0.00 0.01 0.01 95 1016.4
20240620102805 70 9 0.0 2.0 0.00 0.01 0.01 95 1016.3
20240620102306 70 9 0.0 0.0 0.00 0.01 0.01 95 1016.3
20240620101804 70 9 0.0 2.0 0.00 0.01 0.01 95 1016.2
20240620101305 70 9 0.0 2.0 0.00 0.01 0.01 95 1016.1
20240620100805 70 9 0.0 2.0 0.00 0.01 0.01 95 1016.0
20240620100305 70 9 0.0 2.0 0.00 0.01 0.01 95 1016.0
20240620095804 70 9 0.0 2.0 0.00 0.01 0.01 95 1015.9
20240620094804 71 9 0.0 2.0 0.00 0.01 0.01 95 1015.9
20240620094305 71 9 0.0 2.0 0.01 0.01 0.01 95 1015.8
20240620093805 71 9 0.0 2.0 0.01 0.01 0.01 95 1015.7
20240620093305 71 9 0.0 2.0 0.01 0.01 0.01 95 1015.9
20240620092805 71 9 1.0 2.0 0.01 0.01 0.01 95 1015.9
20240620092307 70 9 0.0 0.0 0.01 0.01 0.01 95 1015.9
20240620091305 71 9 0.0 2.0 0.01 0.01 0.01 95 1016.0
20240620090804 71 9 0.0 2.0 0.01 0.01 0.01 95 1016.0
20240620090307 71 9 0.0 2.0 0.01 0.01 0.01 95 1015.9
20240620085805 71 9 0.0 2.0 0.01 0.01 0.01 95 1016.0
20240620085306 71 9 0.0 2.0 0.01 0.01 0.01 95 1016.0
20240620084805 71 9 1.0 2.0 0.01 0.01 0.01 95 1015.9
20240620084304 71 9 0.0 2.0 0.00 0.00 0.00 95 1015.9
20240620083805 71 9 0.0 2.0 0.00 0.00 0.00 95 1015.8
20240620083304 71 9 0.0 2.0 0.00 0.00 0.00 94 1015.8
20240620082306 71 9 0.0 2.0 0.00 0.00 0.00 95 1015.7
20240620081804 71 9 0.0 2.0 0.00 0.00 0.00 94 1015.6
20240620081306 71 9 0.0 2.0 0.00 0.00 0.00 95 1015.6
20240620080805 71 9 0.0 2.0 0.00 0.00 0.00 95 1015.5
20240620075805 71 9 0.0 2.0 0.00 0.00 0.00 95 1015.5
20240620075306 71 9 0.0 2.0 0.00 0.00 0.00 95 1015.4
20240620074805 71 9 0.0 2.0 0.00 0.00 0.00 94 1015.4
20240620074305 71 9 0.0 1.0 0.00 0.00 0.00 94 1015.4
20240620073805 71 9 0.0 2.0 0.00 0.00 0.00 94 1015.4
20240620073308 71 9 0.0 2.0 0.00 0.00 0.00 94 1015.4
20240620072805 72 9 0.0 2.0 0.00 0.00 0.00 94 1015.5
20240620072306 72 9 0.0 2.0 0.00 0.00 0.00 94 1015.5
20240620071805 72 9 0.0 2.0 0.00 0.00 0.00 94 1015.6
20240620052804 74 9 0.0 2.0 0.00 0.00 0.00 91 1015.6
20240620052306 74 9 0.0 2.0 0.00 0.00 0.00 91 1015.6
20240620051805 74 9 1.0 2.0 0.00 0.00 0.00 92 1015.7
20240620051305 74 9 1.0 2.0 0.00 0.00 0.00 92 1015.6
20240620050817 74 9 0.0 2.0 0.00 0.00 0.00 92 1015.6
20240620050304 74 9 1.0 2.0 0.00 0.00 0.00 92 1015.6
20240620045805 74 9 0.0 2.0 0.00 0.00 0.00 92 1015.6
20240620045306 74 9 0.0 2.0 0.00 0.00 0.00 91 1015.6
20240620044805 74 9 1.0 2.0 0.00 0.00 0.00 92 1015.5
20240620044304 74 9 1.0 2.0 0.00 0.00 0.00 92 1015.5
20240620043305 74 9 1.0 2.0 0.00 0.00 0.00 92 1015.4
20240620042804 74 9 1.0 2.0 0.00 0.00 0.00 92 1015.5
20240620042306 74 9 0.0 2.0 0.00 0.00 0.00 92 1015.5
20240620041805 74 9 0.0 2.0 0.00 0.00 0.00 92 1015.4
20240620041305 74 9 1.0 2.0 0.00 0.00 0.00 92 1015.4
20240620040804 74 9 0.0 2.0 0.00 0.00 0.00 92 1015.3
20240620035805 74 9 1.0 2.0 0.00 0.00 0.00 92 1015.4
20240620035306 74 9 0.0 2.0 0.00 0.00 0.00 92 1015.4
20240620034804 75 9 1.0 2.0 0.00 0.00 0.00 91 1015.3
20240620034304 75 9 1.0 2.0 0.00 0.00 0.00 91 1015.3
20240620033805 75 9 1.0 2.0 0.00 0.00 0.00 92 1015.2
20240620033305 75 9 0.0 2.0 0.00 0.00 0.00 92 1015.1
20240620032804 75 9 1.0 3.0 0.00 0.00 0.00 91 1015.2
20240620032308 75 9 1.0 3.0 0.00 0.00 0.00 92 1015.1
20240620031305 75 9 1.0 2.0 0.00 0.00 0.00 92 1015.1
20240620030804 75 9 1.0 2.0 0.00 0.00 0.00 92 1015.2
20240620030304 75 9 0.0 2.0 0.00 0.00 0.00 91 1015.2
20240620025805 75 9 0.0 2.0 0.00 0.00 0.00 91 1015.1
20240620025306 75 9 1.0 2.0 0.00 0.00 0.00 91 1015.0
20240620024805 75 9 1.0 2.0 0.00 0.00 0.00 91 1015.0
20240620024304 75 9 1.0 2.0 0.00 0.00 0.00 91 1015.0
20240620023804 75 9 0.0 2.0 0.00 0.00 0.00 91 1015.0
20240620023305 75 9 1.0 2.0 0.00 0.00 0.00 91 1014.9
20240620022804 75 9 0.0 2.0 0.00 0.00 0.00 91 1014.9
20240620022306 75 9 1.0 2.0 0.00 0.00 0.00 90 1014.8
20240620021304 75 9 0.0 2.0 0.00 0.00 0.00 89 1014.8
20240620020805 76 9 1.0 2.0 0.00 0.00 0.00 88 1014.7
20240620020305 76 9 1.0 2.0 0.00 0.00 0.00 87 1014.6
20240620015805 76 9 0.0 3.0 0.00 0.00 0.00 86 1014.6
20240620015306 76 9 1.0 3.0 0.00 0.00 0.00 86 1014.5
20240620014806 76 9 1.0 3.0 0.00 0.00 0.00 85 1014.4
20240620014304 76 9 1.0 2.0 0.00 0.00 0.00 85 1014.4
20240620013805 76 9 1.0 2.0 0.00 0.00 0.00 84 1014.4
20240620013304 76 9 0.0 2.0 0.00 0.00 0.00 84 1014.4
20240620012804 76 9 1.0 2.0 0.00 0.00 0.00 83 1014.4
20240620011805 76 9 1.0 2.0 0.00 0.00 0.00 84 1014.4
20240620011305 76 9 1.0 2.0 0.00 0.00 0.00 84 1014.4
20240620010805 76 9 0.0 3.0 0.00 0.00 0.00 85 1014.5
20240620010305 76 9 1.0 3.0 0.00 0.00 0.00 85 1014.4
20240620005306 77 9 1.0 8.0 0.00 0.00 0.00 84 1014.4
20240620004804 77 9 2.0 7.0 0.00 0.00 0.00 83 1014.2
20240620004304 77 9 1.0 3.0 0.00 0.00 0.00 83 1014.2
20240620003805 77 9 1.0 5.0 0.00 0.00 0.00 82 1014.1
20240620003304 77 9 1.0 7.0 0.00 0.00 0.00 83 1014.0
20240620002805 77 9 1.0 7.0 0.00 0.00 0.00 84 1014.1
20240620002306 77 9 1.0 9.0 0.00 0.00 0.00 83 1014.1
20240620001805 77 9 2.0 9.0 0.00 0.00 0.00 82 1014.1
20240620001305 78 9 1.0 7.0 0.00 0.00 0.00 82 1014.2
20240620000804 78 16 3.0 7.0 0.00 0.00 0.00 82 1014.2
20240620000304 78 9 1.0 8.0 0.00 0.00 0.00 82 1014.3
20240619235804 78 9 1.0 8.0 0.00 0.00 0.00 82 1014.3
20240619234804 79 9 2.0 7.0 0.00 0.00 0.00 81 1014.1
20240619234304 79 9 2.0 7.0 0.00 0.00 0.00 82 1014.0
20240619233804 78 9 2.0 10.0 0.00 0.00 0.00 82 1013.8
20240619233304 78 9 2.0 10.0 0.00 0.00 0.00 81 1013.8
20240619232804 78 6 2.0 10.0 0.00 0.00 0.00 82 1013.9
20240619232306 77 0 2.0 8.0 0.00 0.00 0.00 82 1013.9
20240619231806 78 9 1.0 12.0 0.00 0.00 0.00 81 1013.9
20240619231304 78 9 2.0 12.0 0.00 0.00 0.00 81 1013.7
20240619230807 78 7 2.0 12.0 0.00 0.00 0.00 81 1013.6
20240619230305 78 0 3.0 10.0 0.00 0.00 0.00 80 1013.4
20240619225804 78 0 3.0 10.0 0.00 0.00 0.00 80 1013.4
20240619225306 78 351 1.0 8.0 0.00 0.00 0.00 80 1013.6
20240619224804 78 351 2.0 6.0 0.00 0.00 0.00 79 1013.6
20240619224305 78 351 2.0 9.0 0.00 0.00 0.00 79 1013.6
20240619223804 79 351 2.0 9.0 0.00 0.00 0.00 80 1013.6
20240619223305 79 351 3.0 6.0 0.00 0.00 0.00 78 1013.6
20240619222805 79 351 1.0 9.0 0.00 0.00 0.00 78 1013.6
20240619221805 80 350 1.0 6.0 0.00 0.00 0.00 77 1013.6
20240619221304 81 350 3.0 6.0 0.00 0.00 0.00 76 1013.6
20240619220804 81 348 1.0 5.0 0.00 0.00 0.00 76 1013.7
20240619220304 80 348 1.0 5.0 0.00 0.00 0.00 77 1013.7
20240619215804 81 348 2.0 5.0 0.00 0.00 0.00 74 1013.7
20240619215306 81 348 0.0 3.0 0.00 0.00 0.00 75 1013.6
20240619214804 81 348 1.0 3.0 0.00 0.00 0.00 74 1013.5
20240619214304 81 348 0.0 2.0 0.00 0.00 0.00 75 1013.5
20240619213804 81 348 0.0 2.0 0.00 0.00 0.00 73 1013.5
20240619213305 81 348 1.0 2.0 0.00 0.00 0.00 73 1013.5
20240619212804 82 348 1.0 3.0 0.00 0.00 0.00 73 1013.5
20240619212306 82 348 1.0 3.0 0.00 0.00 0.00 73 1013.5